Flag for Namibia Weather past 2 weeks in Windhoek, Namibia

Now
70 °F

Scattered clouds.


Feels Like: 70 °F
Forecast: 59 / 78 °F
Wind: 8 mph from North

Location: Windhoek


UV Index: 7 (High)

Visibility: N/A


Pressure: 30.33 "Hg

Humidity: 43%

Dew point: 46 °F

Location of WindhoekLocation

Historic Weather in Windhoek

°F

Windhoek temperature yesterday

Maximum temperature yesterday: 77 °F (at 2:00 PM)
Minimum temperature yesterday: 55 °F (at 6:00 AM)
Average temperature yesterday: 68 °F

Past Weeks' High & Low Weather Summary

 TemperatureHumidityPressure
High84 °F (Apr 5, 2:00 PM)100% (Apr 13, 8:00 PM)30.36 "Hg (Apr 13, 8:00 PM)
Low50 °F (Apr 11, 6:00 AM)27% (Apr 15, 11:00 AM)30.18 "Hg (Apr 5, 7:00 PM)
Average64 °F63%30.27 "Hg
* Reported Apr 5 10:00 AM — Apr 20 9:00 AM, Windhoek, Weather by CustomWeather, © 2014

Note: Actual official high and low records may vary slightly from our data, if they occured in-between our weather recording intervals... More about our weather records

Advertising

Historic Weather Conditions — Data for Previous 24 hours

 ConditionsComfort  
Time TempWeatherWind HumidityBarometerVisibility
9:00 AM
Apr 20
70 °FSunny.5 mph40%30.33 "Hg10 mi
8:00 AM66 °FSunny.No wind46%30.33 "Hg10 mi
7:00 AM57 °FSunny.5 mph59%30.33 "Hg10 mi
6:00 AM52 °FSunny.7 mph72%30.30 "Hg10 mi
5:00 AM52 °FCool.5 mph72%30.30 "HgN/A
4:00 AM54 °FCool.5 mph72%30.27 "HgN/A
3:00 AM55 °FCool.6 mph67%30.30 "HgN/A
2:00 AM57 °FCool.6 mph63%30.30 "HgN/A
1:00 AM57 °FCool.6 mph63%30.33 "HgN/A
12:00 AM57 °FCool.6 mph63%30.33 "HgN/A
11:00 PM
Apr 19
59 °FRefreshingly cool.7 mph59%30.33 "HgN/A
10:00 PM61 °FRefreshingly cool.6 mph55%30.33 "HgN/A
9:00 PM63 °FMild.5 mph56%30.33 "HgN/A
8:00 PM63 °FMild.6 mph56%30.33 "HgN/A
7:00 PM64 °FClear.5 mph52%30.33 "Hg10 mi
6:00 PM66 °FClear.7 mph46%30.30 "Hg10 mi
5:00 PM72 °FPassing clouds.7 mph38%30.27 "HgN/A
4:00 PM75 °FScattered clouds.12 mph31%30.27 "HgN/A
3:00 PM77 °FScattered clouds.7 mph34%30.27 "HgN/A
2:00 PM77 °FScattered clouds.12 mph34%30.27 "HgN/A
1:00 PM75 °FScattered clouds.9 mph36%30.30 "HgN/A
12:00 PM75 °FScattered clouds.7 mph39%30.33 "HgN/A
11:00 AM75 °FScattered clouds.3 mph39%30.36 "HgN/A
10:00 AM73 °FSunny.8 mph41%30.36 "Hg10 mi
Weather by CustomWeather, © 2014

See weather overview